Flag for Guyana Weather past 2 weeks in Linden, Guyana

75 °F

Partly cloudy.

Feels Like: 73 °F
Forecast: 72 / 85 °F
Wind: No wind

Location: Georgetown/Cheddi Jagan International Airport

Current Time: Nov 26, 2015 at 2:07:52 AM

Latest Report: Nov 26, 2015 at 1:00 AM

Visibility: 10 mi

Pressure: 29.83 "Hg

Humidity: 100%

Dew point: 75 °F

Location of LindenLocation

Historic Weather in Linden — Graph


Linden temperature yesterday

Maximum temperature yesterday: 84 °F (at 9:00 AM)
Minimum temperature yesterday: 73 °F (at 2:00 AM)
Average temperature yesterday: 77 °F

Past Weeks' High & Low Weather Summary

High91 °F (Nov 11, 1:00 PM)100% (Nov 11, 12:00 AM)29.98 "Hg (Nov 11, 12:00 AM)
Low72 °F (Nov 13, 3:00 AM)52% (Nov 14, 1:00 PM)29.71 "Hg (Nov 20, 2:00 PM)
Average79 °F88%29.84 "Hg
* Reported Midnight between Nov 10 and Nov 11 — Midnight between Nov 25 and Nov 26, Linden, Weather by CustomWeather, © 2015

Note: Actual official high and low records may vary slightly from our data, if they occured in-between our weather recording intervals... More about our weather records


Linden weather history for previous 24 hours

Time TempWeatherWind HumidityBarometerVisibility
12:00 AM
Thu, Nov 26
75 °FPartly cloudy.No wind100%29.89 "HgN/A
11:00 PM
Wed, Nov 25
77 °FClear.No wind94%29.92 "Hg10 mi
10:00 PM77 °FClear.2 mph94%29.92 "Hg10 mi
9:00 PM75 °FPassing clouds.No wind100%29.89 "Hg10 mi
8:00 PM75 °FPassing clouds.No wind100%29.86 "Hg10 mi
7:00 PM75 °FPassing clouds.No wind100%29.86 "HgN/A
6:00 PM77 °FPassing clouds.2 mph94%29.83 "Hg6 mi
5:00 PM77 °FPartly sunny.2 mph94%29.80 "Hg5 mi
4:00 PM75 °FRain. Partly sunny.5 mph100%29.80 "Hg4 mi
3:00 PM79 °FRain. Mostly cloudy.7 mph94%29.80 "Hg4 mi
2:00 PM81 °FThunderstorms. Partly sunny.7 mph89%29.80 "Hg5 mi
1:00 PM79 °FThunderstorms. Partly sunny.12 mph89%29.83 "Hg5 mi
12:00 PM77 °FThunderstorms. Broken clouds.5 mph94%29.86 "Hg5 mi
11:00 AM77 °FThunderstorms. Partly sunny.9 mph94%29.89 "Hg3 mi
10:00 AM82 °FThunderstorms. Partly sunny.14 mph84%29.89 "Hg6 mi
9:00 AM84 °FThunderstorms. Partly sunny.9 mph79%29.89 "Hg6 mi
8:00 AM81 °FSprinkles. Partly sunny.2 mph89%29.89 "HgN/A
7:00 AM77 °FBroken clouds.5 mph94%29.86 "Hg6 mi
6:00 AM75 °FPassing clouds.2 mph94%29.83 "Hg6 mi
5:00 AM75 °FPartly cloudy.7 mph94%29.80 "Hg6 mi
2:00 AM73 °FPartly cloudy.No wind100%29.80 "Hg6 mi
Weather by CustomWeather, © 2015

See weather overviewHow to use our weather pages